Find Starlink 36356

NORAD ID: 68242 Int'l Des: 2026-054 Owner: SPXS Country: US Constellation: starlink operational
LEOCIRCULAR

Current View

Loading 3D Globe...

About Starlink 36356

Starlink 36356 (NORAD 68242) is a starlink constellation satellite (v2 mini) launched Mar 17, 2026 by SPXS of US. It operates in LEO, CIRCULAR orbit with a mass of 575.00 kg.

About Starlink 36356

Description loading...

Upcoming Passes

Passes for default location (London). Set your location on the main map for personalized predictions.

Altitude History

Loading altitude history...

Two-Line Element Set

1 68242U 26054L 26167.32202050 -.00000812 00000-0 -15304-4 0 9995
2 68242 53.1565 198.7355 0001366 115.4703 244.6439 15.30185028 14093
Epoch: Jun 16, 2026 • Age: 7 hours

Current Status

Altitude 494.6 km
Velocity 7.62 km/s
Sub-Earth Point -53.28°S, 27.77°W
Launch Date Mar 17, 2026
Age 0.2 years
Type internet

Technical Details

Classification Payload
Mass 575.00 kg
Dry Mass 530.00 kg
Total Mass 575.00 kg
Length 0.30 m
Diameter 4.10 m
Span 29.00 m
Shape Box + pan
Manufacturer SPXS
Bus Type Starlink V2MO
Phase Status In Orbit
Owner/State SPXS/US

Most Searched